Tracking 29892 objects as of 21-Nov-2024
HD Live streaming from Space Station
objects crossing your sky now

THORAD AGENA D DEB

Track THORAD AGENA D DEB now!
10-day predictions


NORAD ID: 18785
Int'l Code: 1970-025PQ
Perigee: 1,038.0 km
Apogee: 1,041.6 km
Inclination: 100.1 °
Period: 105.8 minutes
Semi major axis: 7410 km
RCS: 0.0134 m2 (small)
Launch date: April 8, 1970
Source: United States (US)
Launch site: AIR FORCE WESTERN TEST RANGE (AFWTR)

Note: This is SATELLITE DEBRIS
Your satellite tracking list
Your tracking list is empty




NASA's NSSDC Master Catalog

Two Line Element Set (TLE):
1 18785U 70025PQ  24324.43498354  .00000439  00000-0  64286-3 0  9993
2 18785 100.0743 201.1789 0002470 330.0377 204.7859 13.60834413526595
Source of the keplerian elements: AFSPC